GW5910 Weather Reports


time (UTC)temp
F
wind
direction
speed
knots
gust
knots
rain 1hr
in
rain 24hr
in
rain mn
in
humidity
%
barometer
mb
20260504150956 67 218 0.9 1.7 0.00 0.00 0.01 65 1009.0
20260504150457 66 160 0.9 3.5 0.00 0.00 0.01 66 1009.0
20260504140958 61 222 0.9 1.7 0.00 0.00 0.01 71 1009.0
20260504140458 60 187 0.0 0.9 0.00 0.00 0.00 73 1009.0
20260504130359 55 173 0.9 1.7 0.00 0.00 0.00 76 1009.0
20260504110356 53 225 0.9 1.7 0.03 0.00 0.00 74 1010.0
20260504100356 51 192 0.9 1.7 0.00 0.00 0.00 74 1010.0
20260504081856 52 207 0.0 1.7 0.00 0.00 0.00 71 1010.0
20260504081357 52 207 0.9 1.7 0.00 0.00 0.00 70 1010.0
20260504080856 52 182 0.9 1.7 0.00 0.00 0.00 70 1010.0
20260504080356 52 209 0.0 0.9 0.00 0.00 0.00 70 1010.0
20260504070357 52 206 0.0 0.9 0.00 0.00 0.00 69 1011.0
20260504050356 53 202 0.0 0.9 0.00 0.00 0.00 67 1012.0
20260504045856 53 200 0.0 0.9 0.00 0.00 0.00 67 1012.0
20260504045356 53 183 0.0 1.7 0.00 0.00 0.00 67 1012.0
20260504044856 53 163 0.0 1.7 0.00 0.00 0.00 67 1012.0
20260504044358 53 191 0.0 0.9 0.00 0.00 0.00 66 1012.0
20260504043856 53 184 0.9 1.7 0.00 0.00 0.00 66 1012.0
20260504043356 53 176 0.9 2.6 0.00 0.00 0.00 66 1012.0
20260504042857 53 280 0.0 0.9 0.00 0.00 0.00 66 1012.0
20260504042356 53 205 0.0 1.7 0.00 0.00 0.00 66 1012.0
20260504041856 53 195 0.9 1.7 0.00 0.00 0.00 66 1012.0
20260504041356 53 204 0.0 0.0 0.00 0.00 0.00 66 1012.0
20260504040857 53 169 0.9 0.9 0.00 0.00 0.00 66 1012.0
20260504040357 53 183 0.9 1.7 0.00 0.00 0.00 66 1012.0
20260504035856 53 183 1.7 2.6 0.00 0.00 0.00 65 1012.0
20260504035356 53 205 0.9 1.7 0.00 0.00 0.00 65 1012.0
20260504034858 53 183 0.9 1.7 0.00 0.00 0.00 65 1012.0
20260504034357 53 190 0.9 2.6 0.00 0.00 0.00 65 1013.0
20260504033856 53 175 0.0 0.9 0.00 0.00 0.00 67 1013.0
20260504033356 53 167 0.0 1.7 0.00 0.00 0.00 66 1013.0
20260504032856 53 181 0.9 2.6 0.00 0.00 0.00 65 1013.0
20260504032356 53 168 0.9 1.7 0.00 0.00 0.00 66 1013.0
20260504031856 53 193 0.0 0.9 0.00 0.00 0.00 66 1013.0
20260504031356 53 166 0.0 1.7 0.00 0.00 0.00 66 1013.0
20260504030857 53 190 0.0 1.7 0.00 0.00 0.00 66 1013.0
20260504030356 53 238 0.0 1.7 0.00 0.00 0.00 66 1013.0
20260504025856 53 174 0.0 0.0 0.00 0.00 0.00 66 1013.0
20260504025356 53 183 0.0 0.9 0.00 0.00 0.00 66 1013.0
20260504024857 53 189 0.0 0.9 0.00 0.00 0.00 65 1013.0
20260504024356 53 203 0.0 1.7 0.00 0.00 0.00 66 1013.0
20260504023856 53 191 0.0 0.9 0.00 0.00 0.00 65 1013.0
20260504023356 53 203 0.0 0.9 0.00 0.00 0.00 65 1013.0
20260504022856 53 182 0.0 0.9 0.00 0.00 0.00 65 1013.0
20260504022338 53 174 0.0 0.9 0.00 0.00 0.00 65 1013.0
20260504021756 53 145 0.0 0.9 0.00 0.00 0.00 66 1013.0
20260504021256 53 144 0.0 0.9 0.00 0.00 0.00 65 1013.0
20260504020756 54 181 0.0 0.9 0.00 0.00 0.00 64 1013.0
20260504020256 54 170 0.9 1.7 0.00 0.00 0.00 64 1013.0
20260504015756 54 155 0.0 0.0 0.00 0.00 0.00 63 1013.0
20260504015256 54 163 0.0 0.9 0.00 0.00 0.00 63 1013.0
20260504014756 54 141 0.0 0.0 0.00 0.00 0.00 62 1013.0
20260504014256 55 164 0.0 1.7 0.00 0.00 0.00 62 1013.0
20260504013757 55 195 0.0 0.9 0.00 0.00 0.00 61 1013.0
20260504013256 55 217 0.0 1.7 0.00 0.00 0.00 61 1013.0
20260504012756 55 144 0.9 1.7 0.00 0.00 0.00 60 1013.0
20260504012257 55 198 0.0 1.7 0.00 0.00 0.00 61 1013.0
20260504011756 56 215 0.0 0.9 0.00 0.00 0.00 60 1013.0
20260504011256 56 226 0.0 0.9 0.00 0.00 0.00 60 1013.0
20260504010801 56 220 0.0 1.7 0.00 0.00 0.00 59 1012.0
20260504010256 56 172 0.0 2.6 0.00 0.00 0.00 61 1012.0
20260504005757 56 234 0.9 1.7 0.00 0.00 0.00 58 1013.0
20260504005257 56 157 0.0 0.9 0.00 0.00 0.00 59 1013.0
20260504004757 57 148 0.0 1.7 0.00 0.00 0.00 57 1013.0
20260504004256 57 182 0.9 3.5 0.00 0.00 0.00 56 1013.0
20260504003756 58 172 0.9 3.5 0.00 0.00 0.00 54 1013.0
20260504003256 58 211 0.9 1.7 0.00 0.00 0.00 51 1013.0
20260504002758 58 179 0.9 1.7 0.00 0.00 0.00 51 1013.0
20260504002256 58 197 1.7 2.6 0.00 0.00 0.00 51 1013.0
20260504001756 58 217 0.0 0.9 0.00 0.00 0.00 50 1013.0
20260504001256 58 162 0.0 0.9 0.00 0.00 0.00 51 1013.0
20260504000757 59 0 0.0 0.0 0.00 0.00 0.00 49 1013.0
20260504000257 59 158 0.0 1.7 0.00 0.00 0.00 49 1013.0
20260503235756 59 202 0.9 1.7 0.00 0.00 0.00 48 1013.0
20260503235256 59 176 0.9 1.7 0.00 0.00 0.00 47 1013.0
20260503234757 59 175 0.9 2.6 0.00 0.00 0.00 47 1013.0
20260503234256 59 261 0.0 1.7 0.00 0.00 0.00 47 1013.0
20260503233756 60 186 0.9 2.6 0.00 0.00 0.00 46 1013.0
20260503233257 60 197 0.9 1.7 0.00 0.00 0.00 46 1013.0
20260503232757 60 163 0.0 1.7 0.00 0.00 0.00 47 1013.0
20260503232258 60 158 0.9 2.6 0.00 0.00 0.00 45 1013.0
20260503231756 60 176 0.9 1.7 0.00 0.00 0.00 47 1013.0
20260503231257 60 224 0.0 0.9 0.00 0.00 0.00 47 1013.0
20260503230756 60 195 0.9 1.7 0.00 0.00 0.00 45 1013.0
20260503230257 60 221 0.9 1.7 0.00 0.00 0.00 46 1013.0
20260503225756 60 220 0.0 0.9 0.00 0.00 0.00 46 1013.0
20260503225256 61 187 0.9 1.7 0.00 0.00 0.00 44 1013.0
20260503224756 61 200 0.9 1.7 0.00 0.00 0.00 44 1013.0
20260503224257 61 194 0.9 2.6 0.00 0.00 0.00 46 1013.0
20260503223756 61 183 1.7 4.3 0.00 0.00 0.00 43 1014.0
20260503223256 61 184 0.9 2.6 0.00 0.00 0.00 43 1014.0
20260503222756 62 192 0.9 1.7 0.00 0.00 0.00 43 1014.0
20260503222256 62 203 0.9 1.7 0.00 0.00 0.00 44 1014.0
20260503221756 62 152 0.9 2.6 0.00 0.00 0.00 44 1014.0
20260503221256 63 176 1.7 2.6 0.00 0.00 0.00 43 1014.0
20260503220756 64 224 0.9 3.5 0.00 0.00 0.00 42 1014.0
20260503220256 64 153 0.9 2.6 0.00 0.00 0.00 42 1014.0
20260503215757 64 144 0.9 2.6 0.00 0.00 0.00 43 1014.0
20260503215257 64 171 0.9 2.6 0.00 0.00 0.00 44 1014.0
20260503214756 63 151 0.9 2.6 0.00 0.00 0.00 44 1014.0
20260503214256 64 136 1.7 2.6 0.00 0.00 0.00 42 1014.0
20260503213756 64 191 2.6 3.5 0.00 0.00 0.00 43 1015.0
20260503213256 64 178 0.9 2.6 0.00 0.00 0.00 41 1014.0
20260503212756 63 277 2.6 4.3 0.00 0.00 0.00 42 1015.0
20260503212256 63 179 1.7 4.3 0.00 0.00 0.00 42 1015.0
20260503211756 63 187 1.7 3.5 0.00 0.00 0.00 41 1015.0
20260503211256 63 172 0.9 3.5 0.00 0.00 0.00 41 1015.0
20260503210756 64 243 1.7 2.6 0.00 0.00 0.00 40 1015.0
20260503210257 64 144 1.7 3.5 0.00 0.00 0.00 41 1015.0
20260503205756 64 128 1.7 3.5 0.00 0.00 0.00 42 1015.0
20260503205256 63 175 1.7 1.7 0.00 0.00 0.00 40 1015.0
20260503204756 63 156 0.9 1.7 0.00 0.00 0.00 43 1015.0
20260503204256 62 198 0.9 1.7 0.00 0.00 0.00 40 1015.0
20260503203756 62 155 2.6 4.3 0.00 0.00 0.00 42 1015.0
20260503203256 62 122 0.0 0.9 0.00 0.00 0.00 43 1015.0
20260503202756 62 195 1.7 3.5 0.00 0.00 0.00 43 1015.0
20260503202256 62 198 1.7 3.5 0.00 0.00 0.00 40 1015.0
20260503201756 63 174 1.7 3.5 0.00 0.00 0.00 40 1015.0
20260503201256 63 171 1.7 4.3 0.00 0.00 0.00 40 1015.0
20260503200756 63 158 1.7 3.5 0.00 0.00 0.00 40 1015.0
20260503200256 63 155 2.6 4.3 0.00 0.00 0.00 40 1015.0
20260503195756 64 171 0.9 1.7 0.00 0.00 0.00 40 1015.0
20260503195256 64 263 0.9 1.7 0.00 0.00 0.00 40 1016.0
20260503194756 64 208 0.9 2.6 0.00 0.00 0.00 42 1016.0
20260503194256 63 281 2.6 7.8 0.00 0.00 0.00 40 1016.0
20260503193756 62 223 1.7 3.5 0.00 0.00 0.00 43 1016.0
20260503193256 61 132 1.7 3.5 0.00 0.00 0.00 43 1016.0
20260503192757 61 196 1.7 3.5 0.00 0.00 0.00 41 1016.0
20260503192256 62 207 2.6 6.1 0.00 0.00 0.00 42 1016.0
20260503191756 62 217 0.0 1.7 0.00 0.00 0.00 41 1016.0
20260503191259 62 160 0.9 1.7 0.00 0.00 0.00 39 1016.0
20260503190756 62 223 0.9 1.7 0.00 0.00 0.00 44 1017.0
20260503190256 62 231 0.9 5.2 0.00 0.00 0.00 42 1017.0
20260503185756 62 236 0.9 1.7 0.00 0.00 0.00 40 1017.0
20260503185256 63 146 1.7 3.5 0.00 0.00 0.00 39 1017.0
20260503184757 64 207 1.7 2.6 0.00 0.00 0.00 39 1017.0
20260503184256 64 276 1.7 5.2 0.00 0.00 0.00 40 1017.0
20260503183756 63 152 1.7 5.2 0.00 0.00 0.00 42 1017.0
20260503183257 63 182 1.7 3.5 0.00 0.00 0.00 38 1017.0
20260503182756 63 171 1.7 2.6 0.00 0.00 0.00 41 1017.0
20260503182256 63 156 1.7 3.5 0.00 0.00 0.00 41 1017.0
20260503181756 62 183 1.7 2.6 0.00 0.00 0.00 41 1017.0
20260503181256 62 228 1.7 3.5 0.00 0.00 0.00 39 1017.0
20260503180757 62 178 0.9 2.6 0.00 0.00 0.00 40 1017.0
20260503180256 62 148 0.9 1.7 0.00 0.00 0.00 40 1017.0
20260503175756 62 181 1.7 3.5 0.00 0.00 0.00 40 1018.0
20260503175256 63 166 1.7 3.5 0.00 0.00 0.00 40 1018.0
20260503174757 63 176 1.7 2.6 0.00 0.00 0.00 39 1018.0
20260503174256 62 196 0.9 2.6 0.00 0.00 0.00 39 1018.0
20260503173756 62 153 1.7 3.5 0.00 0.00 0.00 40 1018.0
20260503173256 62 229 1.7 1.7 0.00 0.00 0.00 40 1018.0
20260503172756 62 194 0.9 2.6 0.00 0.00 0.00 39 1018.0
20260503172256 62 201 1.7 2.6 0.00 0.00 0.00 41 1018.0
20260503171756 62 171 1.7 4.3 0.00 0.00 0.00 39 1018.0
20260503171257 62 250 2.6 6.1 0.00 0.00 0.00 39 1018.0
20260503170756 62 166 1.7 2.6 0.00 0.00 0.00 40 1018.0
20260503170257 62 191 2.6 3.5 0.00 0.00 0.00 38 1018.0